RYR378 EBCI-EGNJ

Flight info

Callsign RYR378
Flight time 0h 56m
Altitude 36000
Route CIV UY50 FERDI Y18 DENUT DCT RAVLO Y70 ABTOS N110 ESHIN
Aircraft B738/M-SDE2E3FGHIRWXY/LB1

Departure

Time 2026-04-26 20:50
Airport Brussels South Charleroi Airport (EBCI)

Arrival

Time 2026-04-26 21:46
Airport Humberside Airport (EGNJ)
Time Latitude Longitude Altitude Speed Heading
2026-04-26 20:32 50.46856 4.47041 584 ft 0 kts 335°
2026-04-26 20:35 50.46842 4.47052 584 ft 2 kts 334°
2026-04-26 20:35 50.46827 4.47064 584 ft 2 kts 331°
2026-04-26 20:36 50.46813 4.47077 584 ft 2 kts 325°
2026-04-26 20:36 50.46801 4.47093 585 ft 2 kts 303°
2026-04-26 20:36 50.46797 4.47116 586 ft 2 kts 250°
2026-04-26 20:36 50.46799 4.47123 586 ft 0 kts 246°
2026-04-26 20:38 50.46796 4.47111 586 ft 3 kts 246°
2026-04-26 20:38 50.46774 4.47037 586 ft 12 kts 245°
2026-04-26 20:39 50.46741 4.46925 586 ft 10 kts 246°
2026-04-26 20:39 50.46722 4.46859 587 ft 10 kts 246°
2026-04-26 20:39 50.46657 4.46793 590 ft 10 kts 164°
2026-04-26 20:39 50.46599 4.46774 591 ft 9 kts 234°
2026-04-26 20:40 50.46565 4.46659 590 ft 15 kts 245°
2026-04-26 20:40 50.46509 4.46469 588 ft 24 kts 245°
2026-04-26 20:40 50.46432 4.46202 590 ft 29 kts 245°
2026-04-26 20:40 50.46343 4.45912 596 ft 28 kts 244°
2026-04-26 20:41 50.46268 4.45644 597 ft 26 kts 246°
2026-04-26 20:41 50.46195 4.45390 597 ft 25 kts 246°
2026-04-26 20:41 50.46127 4.45153 597 ft 23 kts 245°
2026-04-26 20:41 50.46060 4.44929 596 ft 22 kts 245°
2026-04-26 20:42 50.45999 4.44715 596 ft 21 kts 246°
2026-04-26 20:42 50.45952 4.44551 599 ft 14 kts 246°
2026-04-26 20:42 50.45908 4.44429 598 ft 10 kts 234°
2026-04-26 20:42 50.45866 4.44344 598 ft 10 kts 231°
2026-04-26 20:43 50.45839 4.44288 598 ft 10 kts 232°
2026-04-26 20:43 50.45797 4.44205 597 ft 9 kts 232°
2026-04-26 20:43 50.45773 4.44157 595 ft 6 kts 232°
2026-04-26 20:43 50.45768 4.44145 595 ft 0 kts 232°
2026-04-26 20:47 50.45761 4.44131 594 ft 4 kts 232°
2026-04-26 20:48 50.45723 4.44055 593 ft 13 kts 232°
2026-04-26 20:48 50.45656 4.43988 593 ft 10 kts 167°
2026-04-26 20:48 50.45633 4.44077 593 ft 10 kts 72°
2026-04-26 20:48 50.45645 4.44116 593 ft 0 kts 64°
2026-04-26 20:49 50.45666 4.44185 593 ft 28 kts 65°
2026-04-26 20:49 50.45850 4.44820 597 ft 99 kts 65°
2026-04-26 20:50 50.46224 4.46098 601 ft 155 kts 65°
2026-04-26 20:50 50.46670 4.47650 1259 ft 154 kts 66°
2026-04-26 20:50 50.47200 4.49087 2111 ft 151 kts 45°
2026-04-26 20:50 50.48132 4.49866 2728 ft 158 kts 25°
2026-04-26 20:51 50.48985 4.50941 3322 ft 158 kts 55°
2026-04-26 20:51 50.49605 4.52389 3786 ft 162 kts 54°
2026-04-26 20:51 50.50270 4.53810 4013 ft 162 kts 53°
2026-04-26 20:51 50.50969 4.55268 3999 ft 168 kts 53°
2026-04-26 20:52 50.51673 4.56727 3996 ft 167 kts 52°
2026-04-26 20:52 50.52395 4.58218 4063 ft 179 kts 53°
2026-04-26 20:52 50.53351 4.59647 4278 ft 204 kts 24°
2026-04-26 20:52 50.54815 4.59715 4459 ft 227 kts 341°
2026-04-26 20:53 50.56116 4.58195 4632 ft 251 kts 307°
2026-04-26 20:53 50.56728 4.55539 5049 ft 268 kts 275°
2026-04-26 20:53 50.56759 4.52585 5804 ft 270 kts 270°
2026-04-26 20:53 50.56739 4.49626 6670 ft 269 kts 269°
2026-04-26 20:54 50.56725 4.46680 7488 ft 270 kts 270°
2026-04-26 20:54 50.56725 4.43687 8193 ft 276 kts 270°
2026-04-26 20:54 50.56740 4.40682 8981 ft 278 kts 271°
2026-04-26 20:54 50.56764 4.37617 9806 ft 281 kts 271°
2026-04-26 20:55 50.56796 4.34511 10558 ft 287 kts 271°
2026-04-26 20:55 50.56834 4.31252 10809 ft 310 kts 271°
2026-04-26 20:55 50.56878 4.27723 10994 ft 334 kts 271°
2026-04-26 20:55 50.56926 4.23952 11257 ft 353 kts 271°
2026-04-26 20:56 50.56976 4.20053 11844 ft 360 kts 271°
2026-04-26 20:56 50.57026 4.16099 12604 ft 362 kts 271°
2026-04-26 20:56 50.57075 4.12184 13399 ft 364 kts 271°
2026-04-26 20:56 50.57124 4.08187 14178 ft 367 kts 271°
2026-04-26 20:57 50.57172 4.04155 14872 ft 371 kts 271°
2026-04-26 20:57 50.57221 4.00086 15591 ft 374 kts 271°
2026-04-26 20:57 50.57267 3.95973 16313 ft 377 kts 271°
2026-04-26 20:57 50.57315 3.91824 17017 ft 381 kts 272°
2026-04-26 20:58 50.57791 3.87718 17668 ft 386 kts 291°
2026-04-26 20:58 50.59183 3.84089 18379 ft 391 kts 310°
2026-04-26 20:58 50.61231 3.81238 18972 ft 398 kts 327°
2026-04-26 20:58 50.63764 3.79430 19592 ft 402 kts 338°
2026-04-26 20:59 50.66408 3.77934 20212 ft 405 kts 339°
2026-04-26 20:59 50.69080 3.76462 20797 ft 408 kts 339°
2026-04-26 20:59 50.71766 3.74972 21374 ft 410 kts 338°
2026-04-26 20:59 50.74470 3.73447 21941 ft 414 kts 338°
2026-04-26 21:00 50.77193 3.71888 22373 ft 419 kts 338°
2026-04-26 21:00 50.79951 3.70295 22903 ft 422 kts 338°
2026-04-26 21:00 50.82713 3.68693 23486 ft 424 kts 337°
2026-04-26 21:00 50.85494 3.67079 24019 ft 426 kts 337°
2026-04-26 21:01 50.88290 3.65459 24470 ft 429 kts 338°
2026-04-26 21:01 50.91187 3.64234 24876 ft 434 kts 347°
2026-04-26 21:01 50.94212 3.63743 25297 ft 440 kts 357°
2026-04-26 21:01 50.97288 3.63897 25728 ft 443 kts 360°
2026-04-26 21:02 51.00382 3.64157 26130 ft 446 kts
2026-04-26 21:02 51.03488 3.64424 26514 ft 448 kts 360°
2026-04-26 21:02 51.06585 3.64669 26889 ft 450 kts 359°
2026-04-26 21:02 51.09722 3.64893 27265 ft 452 kts 359°
2026-04-26 21:03 51.12876 3.65103 27644 ft 454 kts 359°
2026-04-26 21:03 51.16039 3.65307 28006 ft 456 kts 359°
2026-04-26 21:03 51.19217 3.65512 28354 ft 458 kts 359°
2026-04-26 21:03 51.22414 3.65702 28690 ft 460 kts 357°
2026-04-26 21:04 51.25597 3.65399 28998 ft 458 kts 348°
2026-04-26 21:04 51.28744 3.64513 29396 ft 458 kts 346°
2026-04-26 21:04 51.31862 3.63554 29939 ft 454 kts 346°
2026-04-26 21:04 51.34920 3.62599 30505 ft 451 kts 346°
2026-04-26 21:05 51.38031 3.61635 30942 ft 449 kts 346°
2026-04-26 21:05 51.41099 3.60699 31297 ft 449 kts 346°
2026-04-26 21:05 51.44128 3.59788 31654 ft 448 kts 346°
2026-04-26 21:05 51.47190 3.58876 32061 ft 446 kts 346°
2026-04-26 21:06 51.50236 3.57974 32493 ft 444 kts 346°
2026-04-26 21:06 51.53280 3.57075 32918 ft 443 kts 346°
2026-04-26 21:06 51.56306 3.56181 33337 ft 441 kts 346°
2026-04-26 21:06 51.59322 3.55288 33739 ft 439 kts 346°
2026-04-26 21:07 51.62327 3.54397 34099 ft 439 kts 346°
2026-04-26 21:07 51.65328 3.53505 34433 ft 438 kts 346°
2026-04-26 21:07 51.68318 3.52614 34729 ft 437 kts 346°
2026-04-26 21:07 51.71279 3.51731 34973 ft 438 kts 346°
2026-04-26 21:08 51.74277 3.50836 35219 ft 438 kts 346°
2026-04-26 21:08 51.80322 3.49025 35312 ft 444 kts 346°
2026-04-26 21:09 51.86377 3.47211 35302 ft 439 kts 346°
2026-04-26 21:09 51.92377 3.45408 35361 ft 440 kts 346°
2026-04-26 21:09 51.95391 3.44499 35568 ft 441 kts 346°
2026-04-26 21:10 51.98402 3.43590 35893 ft 439 kts 346°
2026-04-26 21:10 52.01403 3.42684 36231 ft 438 kts 346°
2026-04-26 21:10 52.04410 3.41773 36300 ft 441 kts 346°
2026-04-26 21:11 52.10438 3.39943 36311 ft 442 kts 346°
2026-04-26 21:11 52.16460 3.38115 36314 ft 438 kts 346°
2026-04-26 21:12 52.22442 3.36292 36318 ft 436 kts 346°
2026-04-26 21:12 52.28399 3.34470 36324 ft 435 kts 346°
2026-04-26 21:13 52.34319 3.32654 36322 ft 435 kts 346°
2026-04-26 21:13 52.40284 3.30820 36324 ft 435 kts 346°
2026-04-26 21:14 52.46254 3.28979 36328 ft 436 kts 346°
2026-04-26 21:14 52.52191 3.27144 36330 ft 438 kts 345°
2026-04-26 21:15 52.58199 3.25281 36328 ft 439 kts 345°
2026-04-26 21:15 52.64214 3.23412 36329 ft 440 kts 345°
2026-04-26 21:16 52.70236 3.21535 36329 ft 441 kts 345°
2026-04-26 21:16 52.76282 3.19645 36343 ft 441 kts 345°
2026-04-26 21:17 52.82314 3.17754 36334 ft 441 kts 345°
2026-04-26 21:17 52.88104 3.14983 36335 ft 430 kts 324°
2026-04-26 21:17 52.90385 3.11889 36327 ft 423 kts 309°
2026-04-26 21:18 52.92135 3.08012 36343 ft 419 kts 298°
2026-04-26 21:18 52.93278 3.03593 36337 ft 417 kts 284°
2026-04-26 21:18 52.93951 2.98927 36340 ft 416 kts 282°
2026-04-26 21:19 52.95116 2.89514 36375 ft 415 kts 281°
2026-04-26 21:19 52.96276 2.80116 36347 ft 417 kts 281°
2026-04-26 21:20 52.97477 2.70680 36342 ft 419 kts 281°
2026-04-26 21:20 52.98692 2.61218 36335 ft 420 kts 281°
2026-04-26 21:21 52.99897 2.51793 36330 ft 419 kts 281°
2026-04-26 21:21 53.01101 2.42312 36335 ft 419 kts 281°
2026-04-26 21:22 53.02293 2.32848 36265 ft 419 kts 281°
2026-04-26 21:22 53.02893 2.28064 35671 ft 423 kts 281°
2026-04-26 21:22 53.03490 2.23283 35023 ft 420 kts 281°
2026-04-26 21:23 53.04665 2.13842 33555 ft 419 kts 281°
2026-04-26 21:23 53.05251 2.09102 32809 ft 418 kts 281°
2026-04-26 21:23 53.05834 2.04371 32081 ft 417 kts 281°
2026-04-26 21:23 53.06417 1.99631 31288 ft 418 kts 280°
2026-04-26 21:24 53.07000 1.94879 30491 ft 419 kts 280°
2026-04-26 21:24 53.07580 1.90131 29804 ft 416 kts 280°
2026-04-26 21:24 53.08152 1.85443 29191 ft 411 kts 280°
2026-04-26 21:24 53.08714 1.80816 28604 ft 405 kts 280°
2026-04-26 21:25 53.09268 1.76243 28034 ft 401 kts 280°
2026-04-26 21:25 53.09813 1.71723 27443 ft 396 kts 280°
2026-04-26 21:25 53.10353 1.67234 26881 ft 393 kts 280°
2026-04-26 21:25 53.10878 1.62845 26327 ft 390 kts 280°
2026-04-26 21:26 53.11229 1.59912 25959 ft 388 kts 280°
2026-04-26 21:26 53.11752 1.55513 25411 ft 386 kts 280°
2026-04-26 21:26 53.12271 1.51148 24866 ft 385 kts 280°
2026-04-26 21:26 53.12792 1.46736 24326 ft 394 kts 280°
2026-04-26 21:27 53.13325 1.42214 23694 ft 400 kts 280°
2026-04-26 21:27 53.13856 1.37689 23044 ft 396 kts 280°
2026-04-26 21:27 53.14383 1.33197 22445 ft 392 kts 280°
2026-04-26 21:27 53.14901 1.28762 21881 ft 388 kts 279°
2026-04-26 21:28 53.15413 1.24365 21319 ft 385 kts 279°
2026-04-26 21:28 53.15919 1.20001 20765 ft 382 kts 279°
2026-04-26 21:28 53.16419 1.15674 20219 ft 379 kts 279°
2026-04-26 21:28 53.16915 1.11371 19674 ft 376 kts 279°
2026-04-26 21:29 53.17405 1.07104 19143 ft 373 kts 279°
2026-04-26 21:29 53.17885 1.02900 18590 ft 372 kts 279°
2026-04-26 21:29 53.18366 0.98679 17979 ft 369 kts 278°
2026-04-26 21:29 53.18842 0.94486 17419 ft 366 kts 279°
2026-04-26 21:30 53.19314 0.90324 16875 ft 363 kts 279°
2026-04-26 21:30 53.19779 0.86196 16350 ft 360 kts 279°
2026-04-26 21:30 53.20239 0.82112 15836 ft 356 kts 279°
2026-04-26 21:30 53.20688 0.78108 15325 ft 353 kts 279°
2026-04-26 21:31 53.21136 0.74098 14823 ft 351 kts 279°
2026-04-26 21:31 53.21581 0.70111 14321 ft 348 kts 279°
2026-04-26 21:31 53.22021 0.66153 13782 ft 346 kts 279°
2026-04-26 21:31 53.22457 0.62215 13232 ft 343 kts 279°
2026-04-26 21:32 53.22889 0.58301 12706 ft 340 kts 279°
2026-04-26 21:32 53.23318 0.54413 12152 ft 339 kts 279°
2026-04-26 21:32 53.23741 0.50564 11651 ft 336 kts 279°
2026-04-26 21:32 53.24171 0.46744 11180 ft 333 kts 283°
2026-04-26 21:33 53.25048 0.43247 11039 ft 322 kts 302°
2026-04-26 21:33 53.26486 0.40480 10892 ft 312 kts 319°
2026-04-26 21:33 53.28190 0.38343 10767 ft 301 kts 324°
2026-04-26 21:33 53.29867 0.36410 10635 ft 292 kts 324°
2026-04-26 21:34 53.31525 0.34530 10508 ft 283 kts 324°
2026-04-26 21:34 53.33127 0.32708 10387 ft 274 kts 324°
2026-04-26 21:34 53.34678 0.30932 10254 ft 267 kts 324°
2026-04-26 21:34 53.36206 0.29172 9960 ft 266 kts 324°
2026-04-26 21:35 53.37739 0.27397 9482 ft 271 kts 324°
2026-04-26 21:35 53.39289 0.25596 9167 ft 270 kts 324°
2026-04-26 21:35 53.40832 0.23799 8848 ft 269 kts 324°
2026-04-26 21:35 53.42350 0.22027 8553 ft 268 kts 324°
2026-04-26 21:36 53.43871 0.20249 8260 ft 266 kts 324°
2026-04-26 21:36 53.45385 0.18476 7976 ft 265 kts 324°
2026-04-26 21:36 53.46889 0.16713 7701 ft 263 kts 324°
2026-04-26 21:36 53.48387 0.14956 7421 ft 261 kts 324°
2026-04-26 21:37 53.49873 0.13210 7150 ft 260 kts 324°
2026-04-26 21:37 53.51352 0.11471 6862 ft 259 kts 324°
2026-04-26 21:37 53.52823 0.09740 6580 ft 258 kts 324°
2026-04-26 21:37 53.54290 0.08012 6292 ft 257 kts 324°
2026-04-26 21:38 53.55732 0.06311 6013 ft 255 kts 324°
2026-04-26 21:38 53.57184 0.04598 5727 ft 254 kts 324°
2026-04-26 21:38 53.58629 0.02891 5452 ft 253 kts 324°
2026-04-26 21:38 53.60067 0.01191 5182 ft 251 kts 324°
2026-04-26 21:39 53.61493 -0.00496 4923 ft 250 kts 324°
2026-04-26 21:39 53.62910 -0.02173 4628 ft 248 kts 323°
2026-04-26 21:39 53.64310 -0.03831 4487 ft 242 kts 323°
2026-04-26 21:39 53.65665 -0.05437 4372 ft 234 kts 323°
2026-04-26 21:40 53.66976 -0.06992 4271 ft 227 kts 323°
2026-04-26 21:40 53.68246 -0.08500 4172 ft 219 kts 323°
2026-04-26 21:40 53.69398 -0.10018 4092 ft 207 kts 309°
2026-04-26 21:40 53.69952 -0.12151 3913 ft 195 kts 280°
2026-04-26 21:41 53.70164 -0.14377 3698 ft 190 kts 277°
2026-04-26 21:41 53.70340 -0.16559 3496 ft 185 kts 277°
2026-04-26 21:41 53.70511 -0.18699 3294 ft 182 kts 277°
2026-04-26 21:41 53.70680 -0.20801 3106 ft 178 kts 277°
2026-04-26 21:42 53.70844 -0.22839 2926 ft 172 kts 276°
2026-04-26 21:42 53.70810 -0.24778 2776 ft 161 kts 244°
2026-04-26 21:42 53.69994 -0.26000 2684 ft 167 kts 209°
2026-04-26 21:42 53.68959 -0.26944 2446 ft 168 kts 210°
2026-04-26 21:43 53.67911 -0.27792 2211 ft 166 kts 206°
2026-04-26 21:43 53.66860 -0.28541 1994 ft 163 kts 205°
2026-04-26 21:43 53.65821 -0.29263 1768 ft 160 kts 204°
2026-04-26 21:43 53.64806 -0.29966 1550 ft 155 kts 204°
2026-04-26 21:44 53.63839 -0.30636 1364 ft 145 kts 203°
2026-04-26 21:44 53.62933 -0.31265 1192 ft 139 kts 202°
2026-04-26 21:44 53.62049 -0.31878 1014 ft 136 kts 202°
2026-04-26 21:44 53.61156 -0.32502 809 ft 141 kts 202°
2026-04-26 21:45 53.60245 -0.33143 583 ft 144 kts 201°
2026-04-26 21:45 53.59314 -0.33777 383 ft 144 kts 200°
2026-04-26 21:45 53.58375 -0.34431 190 ft 147 kts 201°
2026-04-26 21:45 53.57460 -0.35066 106 ft 125 kts 202°
2026-04-26 21:46 53.56858 -0.35476 117 ft 61 kts 202°
2026-04-26 21:46 53.56639 -0.35628 124 ft 13 kts 202°
2026-04-26 21:46 53.56613 -0.35647 125 ft 3 kts 206°